Temp
12 12 12 12 12 11 11 9 8 8 8 8 8 8 8 8 8 8 8 7 6 7
11 11 11 10 10 10 9 9 8 8 8 8 7 8 8 8 7 7 7 6 6 6
10 10 10 10 9 9 8 8 8 8 8 7 7 7 8 7 6 7 6 6 5 5
10 9 9 9 9 8 8 8 8 8 8 7 7 7 7 7 6 6 6 5 5 5
9 9 9 9 8 8 8 7 8 7 7 7 6 6 6 6 6 6 6 5 5 5
9 9 9 8 7 7 7 7 7 7 7 6 5 5 6 6 6 6 5 5 5 5
9 9 8 8 8 7 7 7 7 7 6 6 5 4 4 5 6 6 5 5 5 4
9 9 8 8 7 7 7 7 7 6 6 5 4 2 1 3 5 6 5 5 5 4
9 8 8 7 7 6 6 6 6 6 6 5 2 3 3 2 4 5 5 5 4 4
8 8 7 7 7 6 6 6 6 6 5 4 1 3 2 2 3 5 5 4 4 3
8 8 7 7 7 6 6 6 6 5 5 5 2 3 3 3 4 5 4 4 3 2
8 8 7 7 7 6 6 6 5 5 5 5 1 2 3 3 5 5 4 4 3 1
8 8 7 7 7 6 6 6 6 5 4 3 2 2 2 2 3 3 4 3 3 1
8 8 7 7 6 6 6 6 5 5 4 3 2 1 1 2 1 0 2 2 1 -0
Height
838 841 843 846 846 847 849 851 852 853 854 855 855 854 853 853 852 852 852 852 852 850
838 841 843 846 846 847 849 852 854 856 857 857 857 856 855 855 855 854 855 854 854 852
839 841 844 846 848 849 851 853 856 858 858 859 858 857 856 856 857 857 856 856 856 854
838 841 845 847 849 852 852 855 856 858 859 859 858 859 858 858 859 858 858 858 857 855
838 842 845 848 851 851 854 856 857 858 859 860 860 861 860 860 860 860 860 859 858 856
837 842 845 848 850 852 855 855 858 859 860 862 862 862 861 862 862 862 861 860 858 857
836 840 845 848 850 853 855 856 858 861 862 863 862 862 862 863 863 863 862 860 859 858
835 839 843 847 851 854 855 858 860 861 863 863 864 862 862 864 864 863 862 861 859 857
833 838 841 846 850 853 856 859 860 861 863 864 865 863 861 861 863 863 862 860 858 856
831 836 841 845 849 853 856 858 859 861 864 866 866 863 862 861 863 864 862 859 857 855
829 834 840 844 849 852 855 857 858 861 865 866 864 863 861 862 864 863 861 859 856 854
826 832 837 842 847 850 853 855 858 861 864 865 865 862 862 861 863 862 860 858 855 854
822 829 835 840 844 849 852 854 857 860 862 862 864 863 862 860 862 861 859 857 856 852
820 826 832 837 842 847 850 853 856 859 861 864 863 863 861 860 861 859 858 856 855 853
Wind_Speed
13 11 10 8 9 9 9 9 9 10 10 11 11 10 10 12 12 12 12 13 14 12
12 10 11 10 10 10 10 9 9 9 9 10 10 11 10 12 13 12 12 12 13 13
12 12 11 10 10 11 10 10 9 8 9 9 11 12 11 11 12 12 12 12 13 14
14 13 12 12 11 11 11 10 9 9 9 10 11 12 11 10 11 11 11 12 13 14
15 14 13 13 12 11 11 10 10 9 9 9 10 10 10 10 10 10 10 11 12 13
17 15 14 13 12 12 11 11 10 9 9 8 9 9 9 8 8 8 9 10 11 13
18 17 15 14 13 12 11 10 9 8 8 8 9 9 8 6 6 7 8 9 10 11
19 17 16 15 13 12 11 10 9 9 8 7 8 8 7 4 5 6 8 8 10 12
20 18 17 16 14 13 12 10 9 8 7 6 5 6 6 5 4 6 7 9 10 12
21 20 19 17 16 14 13 11 10 8 7 6 4 7 6 5 5 5 7 8 11 13
23 22 20 18 17 15 13 12 10 8 7 5 3 7 6 6 3 5 6 7 9 11
25 23 21 20 18 16 14 12 10 9 7 5 2 8 6 6 4 5 6 7 8 10
25 24 22 20 19 16 14 13 11 9 7 7 2 6 6 7 5 5 6 7 8 12
26 25 23 21 18 17 15 14 11 10 7 6 5 2 8 8 6 6 7 8 10 11
Wind_Direction
133 133 126 123 118 106 97 85 74 68 64 54 46 48 49 41 38 32 30 23 16 9
135 133 127 120 114 107 99 91 84 79 71 59 52 50 51 45 38 36 30 24 16 12
138 132 131 127 119 113 109 103 100 92 78 65 57 51 51 47 39 37 30 23 17 15
143 139 135 131 127 126 116 112 108 98 79 66 57 50 50 48 39 36 27 21 16 14
148 147 144 139 138 129 122 116 109 100 82 69 59 51 47 45 37 30 22 17 14 11
153 153 148 144 138 132 131 119 115 105 89 75 61 50 44 40 32 26 19 13 9 5
157 154 151 146 142 138 134 126 120 118 102 83 63 46 39 35 26 20 15 11 7 1
157 155 152 147 147 144 139 136 133 127 115 88 60 34 33 26 12 9 5 7 4 359
160 158 154 155 153 149 147 146 142 132 122 101 56 26 51 52 16 356 1 2 2 3
165 162 162 161 159 158 156 150 144 136 133 115 58 30 69 59 21 350 358 0 1 3
168 166 165 164 166 164 161 155 145 147 151 143 36 26 65 64 17 358 3 5 6 6
169 167 168 169 168 166 163 160 155 153 151 150 89 15 26 58 7 6 11 12 5 6
170 170 171 170 168 167 166 162 157 150 148 148 129 14 27 52 15 13 10 12 15 346
171 172 171 168 168 168 165 162 158 155 154 156 128 350 33 45 37 13 4 3 356 347